Dewpoint
28 23 23 23 23 23 23 24 22 22 25 26 27 27 28 29 29 26 24 30 35 39 41 43 46 49 50 52 53 53 53 53 53 55 57 57 57 57 58 56 55 54 52 51
30 26 24 22 23 23 23 24 26 26 25 30 30 30 29 28 28 27 25 27 32 38 41 43 44 45 47 48 52 54 54 54 55 56 57 57 57 56 55 53 52 51 49 48
30 32 26 23 24 23 24 26 26 25 27 28 28 29 29 29 28 27 26 26 27 35 41 44 46 48 47 48 51 55 55 55 55 57 57 56 54 52 51 50 48 47 46 45
31 31 26 28 26 25 25 25 25 26 27 27 26 26 29 29 28 29 28 28 27 30 41 45 51 53 53 54 54 55 55 55 55 55 53 51 50 49 46 46 46 45 44 44
28 27 31 29 26 25 24 24 25 24 26 25 22 24 24 24 25 28 29 28 28 30 45 51 52 53 54 54 55 55 54 54 53 52 50 49 47 45 45 44 43 43 42 41
31 26 20 28 29 29 27 23 26 25 25 25 25 24 26 26 27 29 29 31 36 44 50 53 52 53 53 52 52 52 51 50 49 49 47 46 45 43 42 42 40 39 38 38
30 28 29 34 35 38 29 27 30 28 28 27 27 28 29 28 29 36 39 45 49 50 50 51 51 51 50 49 50 48 47 46 46 46 45 44 41 40 39 39 37 34 32 32
31 28 25 36 36 36 36 34 36 37 36 36 34 31 30 29 31 37 41 47 50 50 50 49 48 49 47 47 44 43 42 42 42 41 41 40 39 39 38 36 33 30 29 27
31 30 36 33 35 37 42 41 35 35 37 37 36 36 36 34 36 40 41 46 49 48 47 46 46 47 46 43 42 41 41 40 40 39 39 39 38 37 35 33 31 29 27 25
28 27 28 28 30 31 35 39 38 38 39 37 34 36 37 37 39 40 43 45 46 46 46 44 44 43 43 41 41 40 40 39 38 35 34 33 33 33 32 31 30 28 25 23
29 30 30 32 33 33 36 37 38 40 38 38 37 36 37 38 39 40 42 43 44 44 43 41 41 41 41 41 40 39 36 32 31 28 27 26 26 26 27 27 29 27 25 23
33 38 38 37 39 39 35 34 38 38 37 38 39 38 38 39 39 39 40 41 41 40 40 39 39 39 39 38 36 33 30 29 27 24 23 22 21 22 26 27 27 27 26 24
37 38 38 41 39 39 38 39 40 38 36 37 37 40 39 38 39 40 40 38 35 32 31 31 30 29 30 30 30 29 27 25 23 22 21 20 20 20 21 23 24 23 22 21
36 37 39 39 37 37 37 35 33 32 30 28 30 35 37 37 34 31 28 26 25 25 25 25 25 24 25 25 25 25 25 25 24 23 23 22 22 23 23 22 21 22 23 23
34 36 36 36 34 32 32 30 29 27 26 25 23 23 23 22 22 22 23 23 24 24 24 25 25 25 25 25 25 25 25 25 25 26 26 26 25 25 24 24 23 22 21 22
33 35 35 34 31 30 28 27 26 24 23 22 21 21 21 22 22 22 23 23 23 23 24 24 25 26 27 26 26 25 24 24 24 24 23 23 23 23 22 22 21 21 20 18
30 32 31 32 30 27 26 25 25 24 23 22 21 21 20 20 19 19 19 20 20 20 21 21 21 23 24 24 23 22 22 22 22 21 20 20 20 19 19 19 18 17 16 16
30 29 28 28 27 25 23 23 22 21 21 20 20 18 18 17 16 17 17 18 17 17 19 20 20 21 21 21 21 21 20 19 18 17 17 17 18 18 17 17 16 15 15 15
24 23 23 23 22 21 20 20 20 20 20 19 18 16 17 17 16 16 16 15 14 14 16 19 19 19 19 20 19 18 18 17 16 16 16 16 15 15 14 14 13 13 13 12
22 22 22 21 21 20 19 20 19 19 19 18 17 16 15 15 15 14 13 12 14 15 17 17 18 17 17 17 17 16 15 15 14 14 13 13 12 11 12 11 11 10 9 8
19 20 19 19 19 20 19 19 18 17 17 17 16 15 15 16 16 14 12 10 13 15 15 16 16 16 16 15 14 14 13 13 12 11 10 10 9 8 7 7 7 7 5 5
19 19 18 18 17 18 19 19 18 18 17 17 17 17 14 13 12 12 13 11 13 14 14 13 13 13 12 11 11 10 9 8 7 7 6 5 4 3 3 4 4 4 3 2
20 19 18 18 17 17 17 17 17 16 15 15 14 13 13 14 13 9 8 11 12 12 10 9 8 7 8 8 7 6 5 4 4 3 2 1 1 1 1 1 0 1 1 0
17 18 18 19 18 16 14 16 16 15 15 14 14 14 12 10 10 11 11 10 9 7 7 6 5 5 5 4 4 4 3 3 2 1 0 -1 -2 -2 -1 -1 -1 -2 -2 -2
15 15 15 14 14 15 14 14 12 12 11 11 12 13 12 12 10 11 10 9 9 7 5 4 4 3 2 1 2 2 1 0 -1 -2 -2 -2 -3 -4 -5 -4 -5 -6 -6 -6
12 11 11 12 12 12 12 11 10 9 9 8 8 8 8 9 8 7 6 5 4 2 1 0 0 -1 -0 -0 -1 -1 -0 -1 -3 -4 -4 -5 -6 -5 -6 -6 -7 -7 -8 -10
9 9 8 8 8 8 8 8 7 6 5 5 5 6 6 4 3 3 1 -0 -1 -1 -1 -3 -6 -5 -3 -2 -2 -3 -4 -3 -3 -3 -6 -6 -7 -8 -8 -9 -10 -11 -11 -12
Wind_Speed
18 18 20 16 14 15 15 21 25 21 24 22 25 24 22 21 16 14 17 17 21 24 25 24 25 28 29 31 30 30 32 33 34 28 25 24 26 25 21 20 19 17 17 15
13 13 17 23 26 30 23 17 19 14 15 15 21 23 22 24 24 19 20 22 26 25 24 25 28 29 29 29 28 26 29 33 28 24 23 23 22 18 18 17 17 18 18 18
6 20 13 21 23 27 19 11 13 21 16 16 14 20 24 28 22 22 26 24 25 27 30 28 28 24 27 25 19 23 25 22 22 22 21 19 17 17 18 18 17 17 17 17
3 12 10 11 8 22 26 25 18 15 12 14 18 17 17 16 23 27 24 25 24 21 27 24 16 15 12 14 18 19 18 17 17 18 17 16 16 17 15 14 17 17 15 14
5 9 15 26 8 7 18 31 25 23 20 18 10 5 15 16 15 24 25 28 25 16 17 20 22 17 15 14 16 16 16 17 18 20 19 18 18 17 15 17 13 13 13 16
5 4 13 5 18 23 11 27 10 18 16 17 12 18 19 22 17 21 19 15 17 15 14 17 16 17 18 16 16 17 15 14 14 16 19 19 18 17 13 15 15 14 13 11
11 7 10 12 16 19 11 27 7 6 6 8 16 22 23 16 22 14 9 10 14 16 19 18 18 19 18 18 18 14 15 16 15 14 15 16 16 14 16 16 17 17 17 15
7 7 14 10 10 5 20 13 7 6 8 10 12 18 19 22 21 12 13 11 13 17 17 17 19 21 20 18 14 15 15 15 13 13 12 13 17 15 15 19 19 16 18 16
12 10 9 2 3 10 29 34 10 5 8 11 13 12 17 20 14 14 17 13 13 17 17 15 16 17 19 16 18 18 17 15 15 15 14 14 17 17 17 17 17 15 15 15
7 17 25 22 22 23 33 31 14 6 8 8 13 17 16 12 8 8 7 9 10 14 16 16 13 12 15 19 19 20 20 18 17 19 17 15 14 13 16 15 15 15 16 15
17 17 20 24 25 30 27 26 20 10 7 11 11 12 15 19 13 9 11 8 10 11 11 11 12 13 15 17 21 19 18 18 17 17 19 19 16 11 12 8 13 18 15 16
5 15 16 17 16 15 12 8 7 8 6 4 7 6 8 14 11 4 1 4 8 11 13 14 14 14 14 15 20 24 21 18 16 17 17 18 21 22 22 20 22 20 18 17
7 13 26 23 6 21 14 14 13 13 14 12 13 12 7 6 8 11 13 14 15 14 16 18 19 19 15 13 16 17 23 20 17 17 16 17 15 18 22 20 24 22 21 19
12 16 8 11 11 18 15 13 14 16 18 18 19 21 16 13 15 15 16 18 18 20 21 20 23 22 19 22 23 21 21 19 19 16 16 16 16 15 14 14 14 12 14 14
13 9 9 6 14 21 17 19 21 21 19 22 21 22 23 24 24 22 20 21 24 24 22 23 27 23 20 21 28 24 21 20 19 19 16 14 12 12 11 10 10 11 12 9
20 8 10 14 12 15 16 20 20 19 19 18 21 23 21 23 25 26 25 23 26 24 22 24 25 20 20 22 24 23 21 21 17 15 14 13 12 11 10 9 8 6 6 7
14 6 10 9 9 11 13 14 16 15 16 17 18 18 21 24 26 27 26 25 26 25 22 24 21 20 21 21 21 18 17 17 18 16 15 13 12 11 10 10 9 8 7 7
8 10 10 9 10 9 13 15 15 17 20 19 19 21 22 24 24 22 21 22 27 30 27 23 22 23 23 22 20 18 17 17 16 15 13 12 11 10 9 9 8 7 6 5
14 13 13 15 13 14 16 17 22 21 19 21 23 23 22 22 21 20 21 26 25 26 21 22 24 24 23 21 18 17 16 16 15 13 12 12 12 10 10 8 8 7 7 8
18 17 18 19 18 19 20 18 21 22 19 22 24 25 25 22 22 24 25 28 22 17 17 19 20 21 20 19 18 16 17 15 13 13 13 12 12 12 11 11 9 8 8 7
19 19 20 20 21 24 23 20 23 23 20 24 24 22 22 20 19 18 22 23 18 18 19 20 19 17 16 15 15 15 14 14 13 12 12 11 12 12 11 10 9 8 6 4
17 18 20 21 23 25 23 21 21 21 22 24 21 20 23 23 22 24 22 19 14 17 16 17 17 19 16 15 13 14 14 13 12 12 13 13 13 13 12 11 9 7 5 3
18 19 21 21 22 22 22 22 22 22 23 22 21 21 20 17 14 16 18 14 14 16 16 15 17 18 16 13 13 14 14 15 14 14 14 13 12 11 10 9 9 8 8 7
20 19 17 16 17 20 22 19 21 21 21 21 21 17 16 17 17 15 15 15 17 17 15 15 17 18 16 14 14 15 14 14 13 12 11 11 10 9 8 7 8 8 7 7
16 16 16 16 17 16 16 15 17 17 19 19 19 18 18 15 14 12 12 13 16 15 14 17 17 16 14 14 13 13 12 11 11 11 9 8 6 6 6 6 6 6 7 8
16 14 14 15 13 12 12 13 15 13 14 16 15 14 14 13 14 14 14 14 13 14 14 13 13 13 12 11 11 11 11 9 9 8 6 6 5 5 5 6 7 8 9 9
14 13 13 15 14 13 13 13 14 14 14 13 14 11 13 13 14 13 14 14 14 13 12 12 11 11 10 9 9 8 7 7 7 5 5 4 4 5 6 8 9 10 10 10
Wind_Direction
291 238 228 250 257 263 250 231 225 237 230 234 237 241 244 253 261 258 229 217 217 210 209 202 203 207 210 216 213 209 210 213 218 215 211 212 213 213 213 198 196 188 178 173
329 289 236 247 247 257 263 251 245 247 244 238 238 235 242 246 252 246 241 222 213 213 209 208 207 207 207 211 210 200 203 209 208 199 195 202 208 195 183 180 177 171 170 171
294 334 326 262 243 240 250 228 228 241 241 240 253 251 247 246 239 241 234 229 222 210 210 209 209 206 205 207 194 193 197 194 190 186 191 196 181 172 173 172 162 166 164 164
299 321 232 258 227 230 235 247 248 252 247 248 253 268 258 249 251 239 231 235 237 214 207 213 204 194 178 173 179 185 190 187 182 181 177 168 162 161 152 151 155 155 154 148
207 241 299 299 313 282 235 251 238 246 246 239 240 17 322 280 259 246 230 229 237 235 196 188 191 180 166 161 162 164 176 178 168 164 159 160 163 154 142 139 136 140 145 152
167 204 253 255 333 313 309 260 247 208 226 240 197 260 281 298 302 263 248 235 216 185 164 173 169 158 163 168 165 167 160 152 144 148 152 154 148 145 140 140 142 132 122 119
228 247 273 262 332 350 283 253 316 328 314 284 243 233 231 272 297 274 246 197 161 158 170 173 156 154 169 167 174 156 144 145 147 147 147 143 135 133 134 122 112 106 99 84
177 214 267 331 351 56 319 315 357 24 351 321 299 277 256 264 278 242 221 168 157 158 168 163 160 161 167 173 149 141 137 135 131 127 121 121 120 116 114 117 119 117 112 94
197 213 218 105 269 281 273 282 285 320 334 348 356 321 298 277 268 244 209 189 170 169 160 159 161 161 165 154 139 131 128 124 115 104 104 113 124 122 118 121 128 125 119 116
235 252 261 257 250 236 248 253 246 243 291 327 343 347 331 300 259 225 235 185 160 158 165 165 155 147 148 141 137 135 133 130 123 120 109 101 100 114 128 134 133 135 135 131
253 271 281 281 273 261 247 245 259 257 174 297 312 334 348 332 291 237 203 193 163 158 149 136 126 126 134 139 135 127 119 115 110 108 107 94 76 89 108 98 148 150 145 144
251 334 319 291 343 336 265 300 299 271 258 220 257 319 21 358 329 308 21 99 112 114 120 113 113 117 127 135 135 133 126 121 120 117 114 113 108 89 71 91 100 104 116 123
289 324 295 284 339 8 18 43 40 50 4 358 350 333 293 82 67 77 92 99 93 84 84 85 85 73 55 73 104 117 125 123 117 118 119 120 116 113 106 80 82 90 98 105
343 351 271 2 346 348 7 29 52 40 33 26 10 27 42 50 80 76 82 80 77 81 74 75 76 69 76 84 82 80 82 87 96 92 95 95 95 100 109 116 118 116 113 119
345 342 312 9 14 9 13 31 41 35 25 32 35 45 52 65 64 62 61 72 79 72 68 71 72 66 68 78 91 87 84 80 84 87 86 92 96 101 109 116 124 131 130 121
316 312 351 35 26 18 16 38 49 39 39 42 51 54 64 73 73 68 62 64 75 72 68 72 70 66 71 78 81 79 81 86 84 84 84 85 88 97 100 100 100 109 136 133
329 348 349 12 36 38 36 44 58 58 63 65 69 73 75 76 73 70 67 66 66 62 59 60 62 59 62 67 76 80 78 75 77 73 70 69 71 72 73 79 84 82 82 81
35 38 27 43 44 44 53 64 69 71 73 75 72 74 76 77 80 75 70 72 69 61 53 55 58 58 57 59 65 68 71 73 72 72 71 71 73 71 69 74 77 86 85 74
54 59 59 64 68 78 70 64 68 68 66 79 77 70 69 69 71 72 74 68 65 64 49 55 58 59 58 56 63 67 70 72 71 69 68 70 70 68 67 66 69 66 67 68
66 67 68 69 65 72 73 66 74 73 73 81 84 81 78 74 74 73 70 66 59 62 57 57 63 65 62 57 61 64 66 67 69 66 65 67 69 66 64 65 68 70 68 66
62 65 68 69 68 66 67 68 73 72 71 73 76 76 76 72 68 70 70 69 50 51 54 56 60 62 61 61 61 62 63 65 66 64 63 63 65 61 57 57 61 56 45 45
64 66 65 66 66 64 62 66 71 73 71 72 74 77 78 73 71 68 61 70 59 53 56 57 58 58 60 62 62 65 67 68 69 68 68 68 71 68 59 51 41 25 13 29
66 66 65 65 68 72 67 64 65 68 69 68 70 70 70 68 69 77 75 57 62 63 66 63 63 62 59 58 63 65 66 68 71 75 75 72 68 62 55 44 37 37 50 41
60 58 63 68 73 73 71 65 68 68 70 68 63 66 81 84 76 73 78 73 71 68 66 64 63 65 64 64 68 73 76 78 78 75 71 69 64 61 57 59 58 44 24 359
59 56 53 57 61 66 72 73 70 65 68 66 64 62 65 60 84 79 74 72 70 69 63 60 63 64 67 68 71 72 71 73 73 72 62 57 56 63 67 50 26 360 338 326
63 62 60 58 60 59 63 67 69 61 71 70 57 53 58 62 68 72 70 72 73 74 70 64 66 67 63 64 73 82 86 77 65 52 43 44 65 52 20 359 344 334 325 316
60 59 62 58 46 51 61 68 77 71 72 81 80 57 69 75 78 83 84 83 78 74 72 67 58 52 53 63 76 62 52 45 43 48 55 66 34 12 348 331 322 319 322 322